Flag for U.S.A. Weather past 2 weeks in Tallahassee, Florida, U.S.A.

Now
49 °F

Overcast.


Feels Like: 45 °F
Forecast: 39 / 67 °F
Wind: 9 mph from Northeast

Location: Tallahassee Regional Airport

Current Time: Mar 6, 2015 at 9:05:54 PM

Latest Report: Mar 6, 2015 at 7:53 PM


Visibility: 10 mi

Pressure: 30.37 "Hg

Humidity: 74%

Dew point: 41 °F

Location of TallahasseeLocation

Historic Weather in Tallahassee — Graph

°F

Tallahassee temperature yesterday

Maximum temperature yesterday: 81 °F (at 1:53 PM)
Minimum temperature yesterday: 49 °F (at 11:53 PM)
Average temperature yesterday: 67 °F

Past Weeks' High & Low Weather Summary

 TemperatureHumidityPressure
High81 °F (Mar 3, 12:53 PM)100% (Feb 25, 8:53 PM)30.47 "Hg (Feb 25, 8:53 PM)
Low22 °F (Feb 20, 3:53 AM)16% (Feb 20, 1:53 PM)29.50 "Hg (Feb 25, 7:53 PM)
Average56 °F74%30.18 "Hg
* Reported Feb 19 7:53 PM — Mar 6 7:53 PM, Tallahassee, Weather by CustomWeather, © 2015

Note: Actual official high and low records may vary slightly from our data, if they occured in-between our weather recording intervals... More about our weather records

Advertising

Tallahassee weather history for previous 24 hours

 ConditionsComfort  
Time TempWeatherWind HumidityBarometerVisibility
7:53 PM
Fri, Mar 6
49 °FOvercast.9 mph74%30.37 "Hg10 mi
6:53 PM49 °FOvercast.10 mph74%30.37 "Hg10 mi
5:53 PM48 °FOvercast.9 mph77%30.37 "Hg10 mi
4:53 PM48 °FOvercast.12 mph74%30.36 "Hg10 mi
3:53 PM49 °FOvercast.12 mph71%30.34 "Hg10 mi
2:53 PM50 °FOvercast.13 mph68%30.34 "Hg10 mi
1:53 PM52 °FOvercast.10 mph64%30.33 "Hg10 mi
12:53 PM53 °FOvercast.10 mph61%30.35 "Hg10 mi
11:53 AM51 °FOvercast.10 mph63%30.35 "Hg10 mi
10:53 AM50 °FOvercast.8 mph61%30.35 "Hg10 mi
9:53 AM48 °FPartly sunny.7 mph63%30.34 "Hg10 mi
8:53 AM45 °FPartly sunny.8 mph65%30.33 "Hg10 mi
7:53 AM43 °FBroken clouds.9 mph71%30.30 "Hg10 mi
6:53 AM43 °FPassing clouds.8 mph71%30.27 "Hg10 mi
5:53 AM43 °FPassing clouds.9 mph71%30.27 "Hg10 mi
4:53 AM43 °FClear.10 mph71%30.26 "Hg10 mi
3:53 AM44 °FClear.13 mph71%30.25 "Hg10 mi
2:53 AM45 °FPassing clouds.7 mph74%30.24 "Hg10 mi
1:53 AM47 °FPassing clouds.15 mph74%30.25 "Hg10 mi
12:53 AM49 °FMostly cloudy.12 mph74%30.24 "Hg10 mi
11:53 PM
Thu, Mar 5
49 °FPassing clouds.9 mph74%30.25 "Hg10 mi
10:53 PM50 °FPassing clouds.14 mph77%30.24 "Hg10 mi
9:53 PM52 °FPassing clouds.10 mph77%30.22 "Hg10 mi
Weather by CustomWeather, © 2015

See weather overviewHow to use our weather pages